Weather History for Johnstown, PA

Change the Weather History Date:

Wednesday, May 14, 2014

  Actual Average Record
Temperature  
Mean Temperature 65 °F 56 °F  
Max Temperature 71 °F 66 °F 90 °F (1900)
Min Temperature 58 °F 47 °F 28 °F (2013)
Degree Days  
Heating Degree Days 0 9  
Month to date heating degree days 123 151  
Since 1 July heating degree days 7081 6482  
Cooling Degree Days 0 1  
Month to date cooling degree days 15 1  
Year to date cooling degree days 19 6  
Growing Degree Days 14 (Base 50)    
Moisture  
Dew Point 58 °F    
Average Humidity 87    
Maximum Humidity 100    
Minimum Humidity 73    
Precipitation  
Precipitation 0.02 in 0.14 in 1.17 in (1978)
Month to date precipitation 0.97 1.83  
Year to date precipitation 10.75 13.94  
Sea Level Pressure  
Sea Level Pressure 30.12 in    
Wind  
Wind Speed 9 mph (SSE)    
Max Wind Speed 21 mph    
Max Gust Speed 28 mph    
Visibility 7 miles    
Events Rain , Thunderstorm    
T = Trace of Precipitation, MM = Missing Value Source: NWS Daily Summary

Daily Weather History Graph

Daily Weather History Graph

Search for Another Location

Airport:

Trip Planner

Search our weather history database for the weather conditions in past years. The results will help you decide how hot, cold, wet, or windy it might be!

Date:

Astronomy

May. 14, 2014 Rise Set
Actual Time 6:00 AM EDT 8:23 PM EDT
Civil Twilight 5:29 AM EDT 8:54 PM EDT
Nautical Twilight 4:51 AM EDT 9:32 PM EDT
Astronomical Twilight 4:09 AM EDT 10:15 PM EDT
Moon 8:27 PM EDT (5/14) 5:57 AM EDT (5/14)
Length of Visible Light 15h 24m
Length of Day
14h 23m
Full, 100% of the Moon is Illuminated
May 14
Full
May 14
Full
May 21
Last Quarter
May 28
New
Jun 5
First Quarter

Hourly Weather History & Observations

Time (EDT) Temp. Dew Point Humidity Pressure Visibility Wind Dir Wind Speed Gust Speed Precip Events Conditions
12:03 AM 68.0 °F 55.9 °F 65% 30.18 in 10.0 mi South 5.8 mph - 0.00 in   Mostly Cloudy
12:54 AM 68.0 °F 57.9 °F 70% 30.12 in 10.0 mi SSW 10.4 mph - 0.00 in   Scattered Clouds
1:54 AM 66.0 °F 57.9 °F 75% 30.12 in 10.0 mi SSW 5.8 mph - N/A   Mostly Cloudy
2:54 AM 64.9 °F 55.9 °F 73% 30.12 in 10.0 mi SSW 8.1 mph - N/A   Mostly Cloudy
3:31 AM 63.0 °F 55.9 °F 78% 30.14 in 10.0 mi SSW 5.8 mph - N/A Thunderstorm Partly Cloudy
3:46 AM 63.0 °F 55.9 °F 78% 30.15 in 10.0 mi SSW 4.6 mph - N/A   Clear
3:54 AM 63.0 °F 55.9 °F 78% 30.11 in 10.0 mi SSW 6.9 mph - N/A   Clear
5:54 AM 59.0 °F 55.9 °F 90% 30.15 in 10.0 mi WSW 3.5 mph - N/A   Clear
6:54 AM 59.0 °F 57.0 °F 93% 30.17 in 10.0 mi Calm Calm - N/A   Clear
7:54 AM 63.0 °F 57.9 °F 84% 30.17 in 10.0 mi East 6.9 mph - N/A   Clear
8:54 AM 64.9 °F 59.0 °F 81% 30.17 in 10.0 mi SSE 4.6 mph - N/A   Clear
9:39 AM 64.9 °F 60.1 °F 84% 30.19 in 10.0 mi SSE 10.4 mph - N/A   Partly Cloudy
9:54 AM 64.9 °F 60.1 °F 84% 30.16 in 10.0 mi SE 10.4 mph - N/A   Partly Cloudy
11:54 AM 66.9 °F 61.0 °F 81% 30.16 in 9.0 mi SSE 10.4 mph - N/A   Mostly Cloudy
12:09 PM 68.0 °F 61.0 °F 78% 30.18 in 10.0 mi SSE 9.2 mph - N/A   Partly Cloudy
12:54 PM 69.1 °F 61.0 °F 75% 30.13 in 10.0 mi SSE 11.5 mph - N/A   Partly Cloudy
1:30 PM 68.0 °F 60.1 °F 76% 30.16 in 10.0 mi SE 10.4 mph - N/A   Mostly Cloudy
1:54 PM 70.0 °F 61.0 °F 73% 30.12 in 10.0 mi SSE 12.7 mph 18.4 mph N/A   Scattered Clouds
2:54 PM 66.9 °F 60.1 °F 79% 30.12 in 10.0 mi SE 10.4 mph - N/A   Partly Cloudy
3:54 PM 64.0 °F 60.1 °F 87% 30.10 in 8.0 mi SE 11.5 mph 18.4 mph 0.01 in Rain Light Rain
4:54 PM 64.0 °F 60.1 °F 87% 30.08 in 10.0 mi SSE 11.5 mph - 0.01 in   Clear
5:30 PM 62.1 °F 57.9 °F 86% 30.10 in 8.0 mi SSE 13.8 mph - N/A   Partly Cloudy
5:54 PM 63.0 °F 59.0 °F 87% 30.08 in 10.0 mi SE 9.2 mph - N/A   Clear
6:18 PM 62.1 °F 57.9 °F 86% 30.09 in 9.0 mi SE 11.5 mph - N/A   Scattered Clouds
6:29 PM 62.1 °F 59.0 °F 90% 30.10 in 7.0 mi SSE 12.7 mph - N/A   Mostly Cloudy
6:54 PM 60.1 °F 57.9 °F 93% 30.08 in 3.0 mi SE 10.4 mph - N/A   Overcast
7:45 PM 59.0 °F 57.9 °F 96% 30.09 in 2.5 mi SE 12.7 mph 18.4 mph N/A   Overcast
7:54 PM 59.0 °F 57.9 °F 96% 30.08 in 1.8 mi SE 12.7 mph 20.7 mph N/A   Overcast
8:07 PM 59.0 °F 57.9 °F 96% 30.10 in 2.0 mi SE 8.1 mph - N/A   Overcast
8:30 PM 59.0 °F 57.9 °F 96% 30.09 in 1.5 mi SE 11.5 mph 18.4 mph N/A   Overcast
8:54 PM 57.9 °F 57.9 °F 100% 30.08 in 1.5 mi SE 10.4 mph 19.6 mph N/A   Overcast
9:05 PM 59.0 °F 57.9 °F 96% 30.10 in 3.0 mi SE 11.5 mph - N/A   Overcast
9:26 PM 59.0 °F 57.9 °F 96% 30.10 in 4.0 mi SE 13.8 mph 23.0 mph N/A   Overcast
9:54 PM 59.0 °F 57.9 °F 96% 30.08 in 4.0 mi SSE 13.8 mph 21.9 mph N/A   Overcast
10:26 PM 59.0 °F 57.9 °F 96% 30.12 in 2.0 mi SSE 15.0 mph - N/A   Overcast
10:41 PM 59.0 °F 57.9 °F 96% 30.12 in 2.5 mi SSE 16.1 mph - N/A   Overcast
10:54 PM 59.0 °F 57.9 °F 96% 30.09 in 1.5 mi SE 11.5 mph 20.7 mph N/A   Overcast
11:18 PM 59.0 °F 57.9 °F 96% 30.12 in 2.5 mi SSE 13.8 mph - N/A   Overcast
11:28 PM 59.0 °F 57.9 °F 96% 30.12 in 3.0 mi SSE 13.8 mph - N/A   Overcast
11:36 PM 59.0 °F 57.9 °F 96% 30.12 in 2.5 mi SSE 12.7 mph - N/A   Overcast
11:47 PM 59.0 °F 57.9 °F 96% 30.11 in 3.0 mi SSE 16.1 mph 27.6 mph N/A   Overcast
11:54 PM 59.0 °F 57.9 °F 96% 30.09 in 2.5 mi SSE 13.8 mph - N/A   Overcast